2023/02/05 00:00:00,15.0,-1.8
2023/02/05 00:10:00,14.9,-2.1
2023/02/05 00:20:00,15.1,-2.4
2023/02/05 00:30:00,15.1,-2.4
2023/02/05 00:40:00,15.1,-2.6
2023/02/05 00:50:00,15.1,-2.6
2023/02/05 01:00:00,15.1,-2.8
2023/02/05 01:10:00,15.2,-2.7
2023/02/05 01:20:00,15.1,-2.7
2023/02/05 01:30:00,15.1,-2.9
2023/02/05 01:40:00,15.1,-2.9
2023/02/05 01:50:00,15.1,-2.6
2023/02/05 02:00:00,15.1,-2.7
2023/02/05 02:10:00,15.1,-2.9
2023/02/05 02:20:00,15.1,-2.9
2023/02/05 02:30:00,15.1,-3.0
2023/02/05 02:40:00,15.0,-2.6
2023/02/05 02:50:00,15.1,-2.7
2023/02/05 03:00:00,15.1,-2.5
2023/02/05 03:10:00,15.1,-2.5
2023/02/05 03:20:00,15.1,-2.4
2023/02/05 03:30:00,15.1,-2.4
2023/02/05 03:40:00,15.1,-2.3
2023/02/05 03:50:00,15.1,-2.1
2023/02/05 04:00:00,15.0,-2.3
2023/02/05 04:10:00,14.9,-2.3
2023/02/05 04:20:00,15.1,-2.3
2023/02/05 04:30:00,15.1,-2.3
2023/02/05 04:40:00,14.9,-2.1
2023/02/05 04:50:00,14.9,-2.2
2023/02/05 05:00:00,14.9,-2.0
2023/02/05 05:10:00,15.0,-2.1
2023/02/05 05:20:00,14.9,-2.2
2023/02/05 05:30:00,14.9,-1.9
2023/02/05 05:40:00,14.9,-2.4
2023/02/05 05:50:00,15.0,-2.6
2023/02/05 06:00:00,15.0,-2.6
2023/02/05 06:10:00,15.0,-3.1
2023/02/05 06:20:00,15.0,-2.9
2023/02/05 06:30:00,15.0,-3.5
2023/02/05 06:40:00,15.0,-3.4
2023/02/05 06:50:00,15.0,-3.5
2023/02/05 07:00:00,15.0,-3.6
2023/02/05 07:10:00,15.0,-3.8
2023/02/05 07:20:00,14.9,-3.7
2023/02/05 07:30:00,14.9,-3.8
2023/02/05 07:40:00,14.9,-3.6
2023/02/05 07:50:00,14.9,-3.1
2023/02/05 08:00:00,14.9,-2.8
2023/02/05 08:10:00,14.8,-2.9
2023/02/05 08:20:00,14.9,-2.6
2023/02/05 08:30:00,14.9,-2.4
2023/02/05 08:40:00,14.8,-1.9
2023/02/05 08:50:00,14.8,-1.3
2023/02/05 09:00:00,14.2, 8.5
2023/02/05 09:10:00,14.0, 6.9
2023/02/05 09:20:00,13.7, 6.9
2023/02/05 09:30:00,13.6, 7.0
2023/02/05 09:40:00,13.3, 6.4
2023/02/05 09:50:00,13.2, 7.0
2023/02/05 10:00:00,13.1, 7.2
2023/02/05 10:10:00,13.1, 6.8
2023/02/05 10:20:00,13.1, 6.7
2023/02/05 10:30:00,13.5, 6.6
2023/02/05 10:40:00,13.3, 6.7
2023/02/05 10:50:00,13.2, 6.3
2023/02/05 11:00:00,12.9, 6.0
2023/02/05 11:10:00,12.5, 6.1
2023/02/05 11:20:00, 0.0, 6.2
2023/02/05 11:30:00, 0.0, 6.5
2023/02/05 11:40:00, 0.0, 6.7
2023/02/05 11:50:00,---, 7.0
2023/02/05 12:00:00, 0.0, 7.1
2023/02/05 12:10:00,---, 8.0
2023/02/05 12:20:00,---, 8.4
2023/02/05 12:30:00, 0.0, 8.4
2023/02/05 12:40:00, 0.0, 8.5
2023/02/05 12:50:00,---, 8.3
2023/02/05 13:00:00, 0.0, 8.8
2023/02/05 13:10:00, 0.0, 8.9
2023/02/05 13:20:00, 0.0, 9.5
2023/02/05 13:30:00, 0.0, 9.1
2023/02/05 13:40:00,10.3,10.0
2023/02/05 13:50:00,---, 9.6
2023/02/05 14:00:00,10.0, 9.8
2023/02/05 14:10:00,10.3, 9.9
2023/02/05 14:20:00,10.9, 9.2
2023/02/05 14:30:00,10.5, 8.8
2023/02/05 14:40:00,10.7, 8.2
2023/02/05 14:50:00,10.4, 7.8
2023/02/05 15:00:00,10.7, 8.4
2023/02/05 15:10:00,10.8, 8.0
2023/02/05 15:20:00,10.8, 7.9
2023/02/05 15:30:00,10.9, 7.8
2023/02/05 15:40:00,10.9, 8.1
2023/02/05 15:50:00,10.6, 7.5
2023/02/05 16:00:00,10.6, 7.0
2023/02/05 16:10:00,10.6, 6.6
2023/02/05 16:20:00,10.7, 5.7
2023/02/05 16:30:00,11.0, 5.0
2023/02/05 16:40:00,11.0, 4.0
2023/02/05 16:50:00,10.9, 3.7
2023/02/05 17:00:00,11.1, 3.4
2023/02/05 17:10:00,11.3, 3.0
2023/02/05 17:20:00,11.1, 2.3
2023/02/05 17:30:00,11.0, 1.8
2023/02/05 17:40:00,11.0, 1.5
2023/02/05 17:50:00,11.1, 1.5
2023/02/05 18:00:00,11.1, 0.7
2023/02/05 18:10:00,11.1, 0.7
2023/02/05 18:20:00,11.2, 0.3
2023/02/05 18:30:00,11.2, 0.1
2023/02/05 18:40:00,11.1,-0.2
2023/02/05 18:50:00,11.1,-0.4
2023/02/05 19:00:00,11.0,-0.6
2023/02/05 19:10:00,11.0,-0.6
2023/02/05 19:20:00,11.0,-0.6
2023/02/05 19:30:00,11.0,-0.9
2023/02/05 19:40:00,11.0,-1.1
2023/02/05 19:50:00,10.9,-1.1
2023/02/05 20:00:00,10.9,-1.3
2023/02/05 20:10:00,11.0,-1.5
2023/02/05 20:20:00,10.9,-1.8
2023/02/05 20:30:00,10.9,-1.5
2023/02/05 20:40:00,10.9,-2.0
2023/02/05 20:50:00,11.0,-1.8
2023/02/05 21:00:00,11.0,-1.9
2023/02/05 21:10:00,11.0,-1.9
2023/02/05 21:20:00,11.0,-1.9
2023/02/05 21:30:00,11.1,-1.9
2023/02/05 21:40:00,11.1,-2.4
2023/02/05 21:50:00,11.1,-2.0
2023/02/05 22:00:00,11.1,-2.1
2023/02/05 22:10:00,11.1,-2.3
2023/02/05 22:20:00,11.2,-2.0
2023/02/05 22:30:00,11.2,-1.9
2023/02/05 22:40:00,11.1,-2.1
2023/02/05 22:50:00,11.2,-2.3
2023/02/05 23:00:00,11.2,-2.3
2023/02/05 23:10:00,11.2,-2.4
2023/02/05 23:20:00,11.1,-2.2
2023/02/05 23:30:00,11.1,-2.3
2023/02/05 23:40:00,11.0,-2.3
2023/02/05 23:50:00,11.1,-2.4
